Location: Сочи
(43.6028°N, 39.7342°E)
Time: 07:59:46
(UTC+03:00)

ISS - Visible Passes

Search period start: 20 March 2019 00:00
Search period end: 30 March 2019 00:00
Orbit: 406 x 411 km, 51.6° (Epoch: 20 March)

Date Brightness Start Highest point End Pass type
(mag) Time Alt. Az. Time Alt. Az. Time Alt. Az.
20 Mar -1.8 20:10:04 10° SSW 20:11:08 17° S 20:11:08 17° S visible
21 Mar -2.1 19:19:57 10° S 19:22:07 17° SE 19:23:18 14° ESE visible
21 Mar -1.3 20:55:05 10° WSW 20:56:06 18° WSW 20:56:06 18° WSW visible
22 Mar -3.9 20:04:04 10° SW 20:07:21 70° SE 20:08:00 51° E visible
23 Mar -3.2 19:13:17 10° SSW 19:16:23 38° SE 19:19:29 10° ENE visible
23 Mar -2.1 20:49:53 10° W 20:52:28 33° NW 20:52:28 33° NW visible
24 Mar -3.1 19:58:36 10° WSW 20:01:51 53° NNW 20:03:57 19° NE visible
24 Mar -0.3 21:36:19 10° WNW 21:36:43 12° NW 21:36:43 12° NW visible
25 Mar -3.8 19:07:27 10° WSW 19:10:45 88° NW 19:14:03 10° ENE visible
25 Mar -1.8 20:44:52 10° WNW 20:47:39 24° NNW 20:48:02 24° N visible
26 Mar -2.1 19:53:26 10° W 19:56:25 31° NNW 19:59:14 11° NE visible
26 Mar -0.6 21:31:10 10° NW 21:31:59 14° NW 21:31:59 14° NW visible
27 Mar -1.6 20:39:49 10° NW 20:42:22 20° N 20:43:04 19° NNE visible
28 Mar -1.7 19:48:22 10° WNW 19:51:03 22° N 19:53:45 10° NE visible
28 Mar -0.8 21:25:44 10° NW 21:26:49 16° NNW 21:26:49 16° NNW visible
29 Mar -1.7 20:34:32 10° NW 20:37:04 20° N 20:37:47 19° NNE visible
